Location: Mount Kobau Star Party
(49.1167°N, 119.7333°W)
Time: 12:32:31
(UTC-07:00)

ARIANE 6 FM1 Upper Stage - Pass Details

Date: 14 April 2026
Orbit: 526 x 601 km, 62.0° (Epoch: 18 May)

Event Time Altitude Azimuth Distance (km) Brightness Sun altitude
Rises 01:54:01 0° 318° (NW) 2,676 6.5 -30.2°
Reaches altitude 10° 01:56:26 10° 329° (NNW) 1,777 5.7 -30.1°
Enters shadow 01:58:58 26° 4° (N) 1,061 4.6 -30.0°
